Location: ???? ?????
(37.9132°N, 22.9869°E)
Time: 21:52:04
(UTC+00:00)

Cosmos 2297 Rocket - Pass Details

Date: 04 August 2024
Orbit: 837 x 844 km, 71.0° (Epoch: 18 September)

Event Time Altitude Azimuth Distance (km) Brightness Sun altitude
Rises 21:57:58 0° 331° (NNW) 3,407 6.3 -34.5°
Reaches altitude 10° 22:00:29 10° 326° (NNW) 2,469 5.3 -34.6°
Enters shadow 22:03:44 32° 307° (NW) 1,402 3.6 -34.7°
